Skip Page Navigation
NASA JPL Caltech
NASA Logo - Jet Propulsion Laboratory + View the NASA Portal
+ Center for Near-Earth Object Studies
JPL Home Earth Solar System Stars & Galaxies Technology
JPL Solar System Dynamics
BODIES ORBITS EPHEMERIDES TOOLS PHYSICAL DATA DISCOVERY FAQ SITE MAP
IMPORTANT: The SSD Announcement email list is now available. Major changes are coming in the near future, including possible hostname and/or URL changes. To be notified of such changes, subscribe to this email list.

Please visit this page for more details.


JPL Small-Body Database Browser
Search: [ help ]  
160735 (2000 RP27)
Classification: Main-belt Asteroid          SPK-ID: 2160735
Ephemeris | Orbit Diagram | Orbital Elements | Mission Design | Physical Parameters | Discovery Circumstances | Close-Approach Data ]

[ show orbit diagram ]
Orbital Elements at Epoch 2458600.5 (2019-Apr-27.0) TDB
Reference: JPL 13 (heliocentric ecliptic J2000)
 Element Value Uncertainty (1-sigma)   Units 
e .07688960489960221 4.6558e-08  
a 2.38879860721167 1.2946e-08 au
q 2.205124826118444 1.1522e-07 au
i 6.55369754075191 5.1985e-06 deg
node 332.3627088331081 3.7254e-05 deg
peri 41.95700056928005 4.8053e-05 deg
M 4.707427746742036 3.0762e-05 deg
tp 2458582.866078842396
(2019-Apr-09.36607884)
0.00011519 TDB
period 1348.552109191869
3.69
1.0962e-05
3.001e-08
d
yr
n .2669529768602958 2.17e-09 deg/d
Q 2.572472388304895 1.3941e-08 au
  Orbit Determination Parameters
   # obs. used (total)      568  
   data-arc span      6579 days (18.01 yr)  
   first obs. used      2000-09-01  
   last obs. used      2018-09-06  
   planetary ephem.      DE431  
   SB-pert. ephem.      SB431-N16  
   condition code      0  
   norm. resid. RMS      .57463  
   source      ORB  
   producer      Otto Matic  
   solution date      2019-Jul-13 08:40:33  

Additional Information
 Earth MOID = 1.20831 au 
 Jupiter MOID = 2.76043 au 
 T_jup = 3.521 
[ show covariance matrix ]

Ephemeris | Orbit Diagram | Orbital Elements | Mission Design | Physical Parameters | Discovery Circumstances | Close-Approach Data ]

Physical Parameter Table
Parameter Symbol Value Units Sigma Reference Notes
absolute magnitude H 15.9   n/a MPO454064  

160735 (2000 RP27)          Discovered 2000-Sep-01 by LINEAR at Socorro
Reference: 20070828/Numbers.arcLast Updated: 2007-08-30

[ show close-approach data ]
Alternate Designations
 2000 RP27 = 2002 AA175 
Ephemeris | Orbit Diagram | Orbital Elements | Mission Design | Physical Parameters | Discovery Circumstances | Close-Approach Data ]
ABOUT SSD CREDITS/AWARDS PRIVACY/COPYRIGHT GLOSSARY LINKS
FirstGov
(server date/time)  
NASA Home Page
Site Manager:   Ryan S. Park
Webmaster  Alan B. Chamberlin